FW8327 Weather Reports


Display with metric or nautical units.
time (UTC)temp
F
wind
direction
speed
MPH
gust
MPH
rain 1hr
in
rain 24hr
in
rain mn
in
humidity
%
barometer
mb
20260510204831 65 308 1.0 2.0 0.00 0.00 0.00 42 1016.5
20260510204328 65 181 0.0 0.0 0.00 0.00 0.00 36 1016.4
20260510203824 65 282 1.0 2.0 0.00 0.00 0.00 39 1016.6
20260510203322 65 269 3.0 4.0 0.00 0.00 0.00 38 1016.3
20260510202822 65 267 0.0 0.0 0.00 0.00 0.00 38 1016.3
20260510202318 65 19 0.0 0.0 0.00 0.00 0.00 37 1016.2
20260510201815 64 279 0.0 0.0 0.00 0.00 0.00 38 1016.1
20260510201312 65 310 2.0 2.0 0.00 0.00 0.00 41 1016.1
20260510200809 64 327 2.0 2.0 0.00 0.00 0.00 38 1016.3
20260510200307 65 3 1.0 2.0 0.00 0.00 0.00 42 1016.1
20260510195802 65 327 3.0 3.0 0.00 0.00 0.00 41 1016.1
20260510195259 64 193 0.0 0.0 0.00 0.00 0.00 39 1016.0
20260510194759 64 237 1.0 2.0 0.00 0.00 0.00 38 1016.1
20260510194256 65 225 0.0 0.0 0.00 0.00 0.00 42 1016.1
20260510193751 64 335 1.0 2.0 0.00 0.00 0.00 40 1016.2
20260510193246 64 328 2.0 2.0 0.00 0.00 0.00 39 1016.5
20260510192742 64 356 2.0 3.0 0.00 0.00 0.00 41 1016.2
20260510192238 64 277 0.0 0.0 0.00 0.00 0.00 40 1016.4
20260510191734 64 266 0.0 0.0 0.00 0.00 0.00 41 1016.3
20260510191230 64 244 0.0 0.0 0.00 0.00 0.00 40 1016.4
20260510190728 64 280 2.0 4.0 0.00 0.00 0.00 40 1016.4
20260510190225 64 271 4.0 6.0 0.00 0.00 0.00 40 1016.4
20260510185722 64 286 2.0 3.0 0.00 0.00 0.00 45 1016.5
20260510185220 64 287 2.0 2.0 0.00 0.00 0.00 41 1016.5
20260510184716 64 272 2.0 3.0 0.00 0.00 0.00 41 1016.6
20260510184213 64 261 0.0 0.0 0.00 0.00 0.00 40 1016.6
20260510183708 64 287 3.0 4.0 0.00 0.00 0.00 44 1016.6
20260510183203 64 300 0.0 1.0 0.00 0.00 0.00 42 1016.6
20260510182700 64 256 0.0 0.0 0.00 0.00 0.00 42 1016.6
20260510182155 63 298 0.0 0.0 0.00 0.00 0.00 40 1016.6
20260510181653 63 264 1.0 2.0 0.00 0.00 0.00 42 1016.9
20260510181149 63 288 2.0 2.0 0.00 0.00 0.00 46 1016.7
20260510180645 63 300 2.0 3.0 0.00 0.00 0.00 44 1016.5
20260510180143 63 28 0.0 1.0 0.00 0.00 0.00 46 1016.5
20260510175639 63 181 0.0 0.0 0.00 0.00 0.00 43 1016.7
20260510175134 64 308 1.0 2.0 0.00 0.00 0.00 48 1016.6
20260510174632 63 73 0.0 0.0 0.00 0.00 0.00 46 1016.6
20260510174130 62 129 0.0 0.0 0.00 0.00 0.00 48 1016.6
20260510173625 63 338 0.0 0.0 0.00 0.00 0.00 48 1016.6
20260510173122 63 18 0.0 0.0 0.00 0.00 0.00 46 1016.5
20260510172617 63 271 0.0 0.0 0.00 0.00 0.00 46 1016.7
20260510172114 63 126 0.0 0.0 0.00 0.00 0.00 44 1016.5
20260510171611 62 145 0.0 0.0 0.00 0.00 0.00 49 1016.6
20260510171108 63 59 0.0 0.0 0.00 0.00 0.00 45 1016.6
20260510170604 61 331 0.0 0.0 0.00 0.00 0.00 48 1016.6
20260510170101 62 257 0.0 1.0 0.00 0.00 0.00 46 1016.8
20260510165557 63 39 0.0 0.0 0.00 0.00 0.00 44 1016.8
20260510165053 62 175 0.0 0.0 0.00 0.00 0.00 45 1016.6
20260510164550 63 1 0.0 1.0 0.00 0.00 0.00 49 1017.0
20260510164047 63 357 1.0 1.0 0.00 0.00 0.00 52 1016.7
20260510163542 62 190 0.0 0.0 0.00 0.00 0.00 48 1016.5
20260510163039 63 318 2.0 3.0 0.00 0.00 0.00 44 1016.3
20260510162533 62 172 0.0 0.0 0.00 0.00 0.00 42 1016.2
20260510162030 61 335 0.0 0.0 0.00 0.00 0.00 52 1016.2
20260510161526 61 36 0.0 0.0 0.00 0.00 0.00 45 1016.3
20260510161023 61 332 0.0 1.0 0.00 0.00 0.00 50 1016.1
20260510160515 61 341 1.0 1.0 0.00 0.00 0.00 54 1016.4
20260510160014 61 354 0.0 0.0 0.00 0.00 0.00 53 1016.1
20260510155510 61 3 0.0 0.0 0.00 0.00 0.00 55 1016.1
20260510155007 61 335 0.0 0.0 0.00 0.00 0.00 54 1016.3
20260510154503 61 341 0.0 0.0 0.00 0.00 0.00 56 1016.3
20260510154003 61 13 0.0 2.0 0.00 0.00 0.00 59 1016.4
20260510153458 61 349 0.0 2.0 0.00 0.00 0.00 59 1016.3
20260510152956 60 52 0.0 0.0 0.00 0.00 0.00 64 1016.2
20260510152453 60 9 1.0 3.0 0.00 0.00 0.00 64 1016.2
20260510151949 60 354 0.0 1.0 0.00 0.00 0.00 64 1016.0
20260510151446 60 27 0.0 0.0 0.00 0.00 0.00 63 1016.2
20260510150942 59 38 0.0 0.0 0.00 0.00 0.00 64 1016.0
20260510150438 59 32 0.0 0.0 0.00 0.00 0.00 59 1016.1
20260510145934 59 10 0.0 0.0 0.00 0.00 0.00 63 1016.1
20260510145431 59 40 0.0 0.0 0.00 0.00 0.00 63 1016.0
20260510144927 59 50 0.0 0.0 0.00 0.00 0.00 59 1015.9
20260510144424 59 18 2.0 2.0 0.00 0.00 0.00 64 1015.9
20260510143919 58 30 0.0 1.0 0.00 0.00 0.00 62 1015.8
20260510143415 59 29 0.0 0.0 0.00 0.00 0.00 65 1015.6
20260510142913 58 346 0.0 0.0 0.00 0.00 0.00 63 1015.9
20260510142409 58 4 0.0 1.0 0.00 0.00 0.00 65 1015.7
20260510141906 58 352 1.0 2.0 0.00 0.00 0.00 65 1015.8
20260510141403 58 6 0.0 0.0 0.00 0.00 0.00 66 1015.5
20260510140900 57 23 0.0 0.0 0.00 0.00 0.00 67 1015.6
20260510140355 57 348 0.0 0.0 0.00 0.00 0.00 65 1015.4
20260510135849 57 27 0.0 0.0 0.00 0.00 0.00 66 1015.3
20260510135345 56 27 1.0 1.0 0.00 0.00 0.00 66 1015.2
20260510134843 56 30 1.0 2.0 0.00 0.00 0.00 68 1015.3
20260510134339 56 55 0.0 0.0 0.00 0.00 0.00 68 1015.4
20260510133836 56 60 1.0 1.0 0.00 0.00 0.00 68 1015.0
20260510133332 56 25 1.0 2.0 0.00 0.00 0.00 69 1015.2
20260510132828 55 14 2.0 4.0 0.00 0.00 0.00 69 1015.1
20260510132326 55 12 2.0 3.0 0.00 0.00 0.00 70 1015.0
20260510131822 55 26 2.0 3.0 0.00 0.00 0.00 69 1014.8
20260510131320 55 29 1.0 2.0 0.00 0.00 0.00 71 1014.7
20260510130817 55 28 1.0 3.0 0.00 0.00 0.00 72 1014.9
20260510130314 55 19 1.0 3.0 0.00 0.00 0.00 72 1014.8
20260510125810 55 35 0.0 1.0 0.00 0.00 0.00 72 1014.6
20260510125307 55 358 2.0 2.0 0.00 0.00 0.00 72 1014.5
20260510124803 55 10 0.0 1.0 0.00 0.00 0.00 73 1014.6
20260510124300 54 25 1.0 2.0 0.00 0.00 0.00 75 1014.4
20260510123755 54 0 1.0 2.0 0.00 0.00 0.00 74 1014.5
20260510123251 54 20 1.0 2.0 0.00 0.00 0.00 76 1014.1
20260510122748 54 352 1.0 1.0 0.00 0.00 0.00 76 1014.1
20260510122244 53 4 1.0 2.0 0.00 0.00 0.00 74 1013.9
20260510121740 53 7 1.0 2.0 0.00 0.00 0.00 76 1014.0
20260510121238 54 3 2.0 3.0 0.00 0.00 0.00 75 1014.0
20260510120735 53 9 1.0 2.0 0.00 0.00 0.00 76 1013.8
20260510120232 53 3 0.0 0.0 0.00 0.00 0.00 77 1013.8
20260510115728 53 3 0.0 1.0 0.00 0.00 0.00 77 1013.7
20260510115226 53 344 0.0 1.0 0.00 0.00 0.00 77 1013.7
20260510114721 53 357 0.0 0.0 0.00 0.00 0.00 79 1013.5
20260510114218 53 350 0.0 1.0 0.00 0.00 0.00 79 1013.5
20260510113713 52 351 0.0 0.0 0.00 0.00 0.00 82 1013.2
20260510113210 52 116 0.0 0.0 0.00 0.00 0.00 81 1013.4
20260510112706 52 114 0.0 0.0 0.00 0.00 0.00 80 1013.0
20260510112204 52 120 0.0 0.0 0.00 0.00 0.00 80 1012.8
20260510111659 52 123 0.0 0.0 0.00 0.00 0.00 80 1012.8
20260510111156 52 124 0.0 0.0 0.00 0.00 0.00 80 1012.6
20260510110650 52 112 0.0 0.0 0.00 0.00 0.00 80 1012.4
20260510110149 52 9 0.0 0.0 0.00 0.00 0.00 80 1012.3
20260510105644 52 32 0.0 0.0 0.00 0.00 0.00 80 1012.1
20260510105144 53 48 0.0 0.0 0.00 0.00 0.00 79 1012.0
20260510104641 53 78 0.0 0.0 0.00 0.00 0.00 79 1012.2
20260510104137 52 10 0.0 0.0 0.00 0.00 0.00 80 1012.2
20260510103634 53 86 0.0 0.0 0.00 0.00 0.00 81 1012.1
20260510103130 53 120 0.0 0.0 0.00 0.00 0.00 82 1012.1
20260510102626 53 126 0.0 0.0 0.00 0.00 0.00 82 1012.1
20260510102122 53 126 0.0 0.0 0.00 0.00 0.00 82 1012.4
20260510101620 53 124 0.0 0.0 0.00 0.00 0.00 82 1012.2
20260510101118 53 126 0.0 0.0 0.00 0.00 0.00 81 1012.1
20260510100614 53 136 0.0 0.0 0.00 0.00 0.00 81 1012.0
20260510100111 53 158 0.0 0.0 0.00 0.00 0.00 80 1012.0
20260510095608 53 160 0.0 0.0 0.00 0.00 0.00 82 1011.9
20260510095108 53 161 0.0 0.0 0.00 0.00 0.00 81 1011.9
20260510094607 53 161 0.0 0.0 0.00 0.00 0.00 80 1011.6
20260510094102 53 161 0.0 0.0 0.00 0.00 0.00 79 1011.8
20260510093559 53 161 0.0 0.0 0.00 0.00 0.00 80 1011.5
20260510093056 53 161 0.0 0.0 0.00 0.00 0.00 82 1011.3
20260510092553 53 178 0.0 0.0 0.00 0.00 0.00 83 1011.3
20260510092052 53 179 0.0 0.0 0.00 0.00 0.00 83 1011.4
20260510091549 54 179 0.0 0.0 0.00 0.00 0.00 83 1011.6
20260510091045 53 120 0.0 0.0 0.00 0.00 0.00 81 1011.4
20260510090542 53 120 0.0 0.0 0.00 0.00 0.00 81 1011.1
20260510090038 53 330 0.0 0.0 0.00 0.00 0.00 81 1011.1
20260510085533 53 114 0.0 0.0 0.00 0.00 0.00 81 1011.0
20260510085029 53 123 0.0 0.0 0.00 0.00 0.00 81 1010.6
20260510084526 53 123 0.0 0.0 0.00 0.00 0.00 80 1010.7
20260510084023 53 104 0.0 0.0 0.00 0.00 0.00 81 1010.6
20260510083519 53 112 0.0 0.0 0.00 0.00 0.00 82 1010.4
20260510083015 53 29 0.0 0.0 0.00 0.00 0.00 81 1010.4
20260510082512 54 91 0.0 0.0 0.00 0.00 0.00 81 1010.6
20260510082007 53 96 0.0 0.0 0.00 0.00 0.00 81 1010.6
20260510081502 53 110 0.0 0.0 0.00 0.00 0.00 82 1010.8
20260510080958 53 80 0.0 0.0 0.00 0.00 0.00 82 1010.8
20260510080457 54 11 0.0 0.0 0.00 0.00 0.00 81 1010.6
20260510075954 54 47 0.0 0.0 0.00 0.00 0.00 79 1010.7
20260510075452 54 14 0.0 0.0 0.00 0.00 0.00 81 1010.9
20260510074948 54 9 0.0 0.0 0.00 0.00 0.00 80 1010.7
20260510074446 54 315 0.0 0.0 0.00 0.00 0.00 79 1011.1
20260510073942 55 341 0.0 0.0 0.00 0.00 0.00 77 1010.6
20260510073437 55 341 0.0 0.0 0.00 0.00 0.00 76 1010.4
20260510072934 55 5 0.0 0.0 0.00 0.00 0.00 75 1010.2
20260510072431 56 357 0.0 0.0 0.00 0.00 0.00 73 1010.2
20260510071926 56 314 0.0 0.0 0.00 0.00 0.00 72 1010.3
20260510071423 56 124 0.0 0.0 0.00 0.00 0.00 71 1010.0
20260510070921 56 19 0.0 0.0 0.00 0.00 0.00 69 1010.0
20260510070419 56 51 0.0 0.0 0.00 0.00 0.00 71 1009.6
20260510065914 56 4 0.0 0.0 0.00 0.00 0.00 68 1009.9
20260510065410 57 346 0.0 0.0 0.00 0.00 0.00 69 1009.9
20260510064907 56 14 0.0 0.0 0.00 0.00 0.00 69 1010.1
20260510064405 56 17 0.0 0.0 0.00 0.00 0.00 70 1010.1
20260510063901 56 347 0.0 0.0 0.00 0.00 0.00 70 1010.0
20260510063357 56 9 0.0 0.0 0.00 0.00 0.00 71 1010.0
20260510062855 56 355 0.0 0.0 0.00 0.00 0.00 71 1010.0
20260510062349 57 352 0.0 0.0 0.00 0.00 0.00 70 1010.0
20260510061845 57 34 0.0 0.0 0.00 0.00 0.00 71 1009.8
20260510061342 57 352 0.0 0.0 0.00 0.00 0.00 68 1009.8
20260510060838 57 19 0.0 0.0 0.00 0.00 0.00 67 1009.7
20260510060336 57 357 0.0 0.0 0.00 0.00 0.00 68 1009.8
20260510055832 58 4 0.0 0.0 0.00 0.00 0.00 68 1009.7
20260510055330 58 355 0.0 0.0 0.00 0.00 0.00 66 1009.6
20260510054825 58 353 0.0 1.0 0.00 0.00 0.00 64 1009.7
20260510054321 58 51 0.0 0.0 0.00 0.00 0.00 68 1009.7
20260510053816 58 32 0.0 0.0 0.00 0.00 0.00 65 1009.5
20260510053311 58 17 0.0 0.0 0.00 0.00 0.00 64 1009.6
20260510052808 59 358 0.0 0.0 0.00 0.00 0.00 64 1009.6
20260510052306 59 15 0.0 0.0 0.00 0.00 0.00 65 1009.6
20260510051800 59 13 0.0 0.0 0.00 0.00 0.00 63 1009.4
20260510051257 59 2 1.0 2.0 0.00 0.00 0.00 62 1009.4
20260510050753 59 30 0.0 1.0 0.00 0.00 0.00 63 1009.1
20260510050245 60 14 0.0 0.0 0.00 0.00 0.00 62 1008.8
20260510045742 60 14 0.0 1.0 0.00 0.00 0.00 62 1009.0
20260510045238 60 350 0.0 0.0 0.00 0.00 0.00 65 1008.7
20260510044735 60 23 1.0 2.0 0.00 0.00 0.00 63 1009.0
20260510044233 60 8 0.0 0.0 0.00 0.00 0.00 65 1008.6
20260510043728 60 349 0.0 1.0 0.00 0.00 0.00 68 1008.7
20260510043225 60 14 0.0 0.0 0.00 0.00 0.00 72 1008.6
20260510042722 60 301 0.0 0.0 0.00 0.00 0.00 73 1008.7
20260510042218 61 289 0.0 0.0 0.00 0.00 0.00 73 1008.6
20260510041715 62 280 1.0 1.0 0.00 0.00 0.00 69 1008.7
20260510041213 62 260 0.0 0.0 0.00 0.00 0.00 67 1008.4
20260510040709 63 269 0.0 0.0 0.00 0.00 0.00 68 1008.4
20260510040206 63 263 0.0 0.0 0.00 0.00 0.00 67 1008.3
20260510035702 63 251 0.0 0.0 0.00 0.00 0.00 68 1008.2
20260510035158 64 241 0.0 0.0 0.00 0.00 0.00 68 1008.0
20260510034654 64 234 0.0 0.0 0.00 0.00 0.00 68 1008.1
20260510034151 65 267 0.0 0.0 0.00 0.00 0.00 67 1008.1
20260510033647 65 207 0.0 0.0 0.00 0.00 0.00 66 1008.1
20260510033145 65 210 0.0 0.0 0.00 0.00 0.00 67 1008.1
20260510032641 65 243 0.0 0.0 0.00 0.00 0.00 67 1008.2
20260510032137 64 261 0.0 0.0 0.00 0.00 0.00 69 1007.8
20260510031632 65 265 0.0 0.0 0.00 0.00 0.00 72 1008.0
20260510031129 65 190 0.0 0.0 0.00 0.00 0.00 72 1007.9
20260510030623 65 255 0.0 0.0 0.00 0.00 0.00 73 1007.7
20260510030121 65 199 0.0 0.0 0.00 0.00 0.00 74 1007.7
20260510025618 65 154 0.0 0.0 0.00 0.00 0.00 74 1007.8
20260510025115 65 186 0.0 0.0 0.00 0.00 0.00 75 1007.7
20260510024612 65 170 0.0 0.0 0.00 0.00 0.00 75 1007.5
20260510024108 65 192 0.0 0.0 0.00 0.00 0.00 74 1007.7
20260510023604 65 201 0.0 0.0 0.00 0.00 0.00 75 1007.5
20260510023102 65 237 0.0 0.0 0.00 0.00 0.00 75 1007.4
20260510022555 65 217 0.0 0.0 0.00 0.00 0.00 75 1007.4
20260510022049 65 180 0.0 0.0 0.00 0.00 0.00 76 1007.5
20260510021541 65 220 0.0 0.0 0.00 0.00 0.00 76 1007.5
20260510021038 66 155 0.0 0.0 0.00 0.00 0.00 74 1007.2
20260510020532 66 165 0.0 0.0 0.00 0.00 0.00 74 1007.2
20260510020028 66 266 0.0 0.0 0.00 0.00 0.00 73 1007.0
20260510015524 66 235 0.0 2.0 0.00 0.00 0.00 74 1006.8
20260510015020 65 255 0.0 0.0 0.00 0.00 0.00 77 1006.8
20260510014517 65 265 0.0 0.0 0.00 0.00 0.00 78 1006.8
20260510014014 64 288 1.0 2.0 0.00 0.00 0.00 82 1006.9
20260510013509 65 253 0.0 0.0 0.00 0.00 0.00 80 1006.6
20260510013005 66 237 0.0 0.0 0.00 0.00 0.00 77 1006.5
20260510012459 66 179 0.0 0.0 0.00 0.00 0.00 77 1006.1
20260510011955 66 176 0.0 0.0 0.00 0.00 0.00 77 1006.2
20260510011449 66 168 0.0 0.0 0.00 0.00 0.00 77 1006.0
20260510010946 66 172 0.0 0.0 0.00 0.00 0.00 76 1006.0
20260510010443 67 159 0.0 0.0 0.00 0.00 0.00 76 1005.8
20260510005940 67 149 0.0 0.0 0.00 0.00 0.00 75 1005.7
20260510005436 67 159 0.0 0.0 0.00 0.00 0.00 75 1005.6
20260510004934 67 170 0.0 0.0 0.00 0.00 0.00 74 1005.6
20260510004431 67 172 0.0 0.0 0.00 0.00 0.00 73 1005.6
20260510003928 67 224 0.0 0.0 0.00 0.00 0.00 73 1005.8
20260510003425 68 194 0.0 0.0 0.00 0.00 0.00 72 1005.7
20260510002924 68 164 0.0 0.0 0.00 0.00 0.00 71 1005.5
20260510002416 68 170 0.0 0.0 0.00 0.00 0.00 70 1005.5
20260510001912 68 146 0.0 0.0 0.00 0.00 0.00 68 1005.6
20260510001410 69 267 0.0 1.0 0.00 0.00 0.00 67 1005.4
20260510000907 69 194 0.0 0.0 0.00 0.00 0.00 66 1005.4
20260510000404 69 162 0.0 0.0 0.00 0.00 0.00 67 1005.1
20260509235900 69 168 0.0 0.0 0.00 0.00 0.00 66 1005.1
20260509235357 70 160 0.0 0.0 0.00 0.00 0.00 65 1005.1
20260509234853 70 180 0.0 0.0 0.00 0.00 0.00 64 1005.4
20260509234350 70 215 3.0 6.0 0.00 0.00 0.00 63 1005.1
20260509233848 71 176 0.0 0.0 0.00 0.00 0.00 63 1004.9
20260509233345 70 165 0.0 0.0 0.00 0.00 0.00 64 1005.1
20260509232840 71 229 0.0 0.0 0.00 0.00 0.00 63 1004.9
20260509232338 71 249 1.0 2.0 0.00 0.00 0.00 62 1004.9
20260509231834 71 181 0.0 0.0 0.00 0.00 0.00 61 1005.2
20260509231326 71 203 1.0 2.0 0.00 0.00 0.00 61 1005.2
20260509230823 72 252 3.0 6.0 0.00 0.00 0.00 60 1005.3
20260509230320 72 244 1.0 2.0 0.00 0.00 0.00 60 1005.2
20260509225815 72 236 2.0 2.0 0.00 0.00 0.00 60 1005.1
20260509225312 72 210 0.0 0.0 0.00 0.00 0.00 60 1004.7
20260509224809 72 266 4.0 6.0 0.00 0.00 0.00 60 1004.8
20260509224305 72 184 0.0 1.0 0.00 0.00 0.00 59 1004.7
20260509223801 72 271 0.0 1.0 0.00 0.00 0.00 60 1004.7
20260509223258 71 252 2.0 4.0 0.00 0.00 0.00 63 1004.8
20260509222755 70 178 0.0 0.0 0.00 0.00 0.00 67 1004.7
20260509222250 70 262 2.0 3.0 0.00 0.00 0.00 65 1004.8
20260509221746 70 211 0.0 0.0 0.00 0.00 0.00 64 1004.8
20260509221243 70 239 3.0 6.0 0.00 0.00 0.00 62 1004.8
20260509220739 70 132 2.0 4.0 0.00 0.00 0.00 62 1004.9
20260509220236 71 173 1.0 3.0 0.00 0.00 0.00 60 1004.6
20260509215731 71 247 0.0 0.0 0.00 0.00 0.00 63 1004.7
20260509215228 72 234 4.0 6.0 0.00 0.00 0.00 62 1004.5
20260509214725 72 265 0.0 1.0 0.00 0.00 0.00 62 1004.5
20260509214222 72 221 3.0 7.0 0.00 0.00 0.00 62 1004.7
20260509213719 72 263 0.0 0.0 0.00 0.00 0.00 60 1004.6
20260509213214 71 254 4.0 6.0 0.00 0.00 0.00 63 1004.4
20260509212712 72 260 4.0 6.0 0.00 0.00 0.00 62 1004.5
20260509212209 72 233 0.0 0.0 0.00 0.00 0.00 63 1004.6
20260509211705 72 264 2.0 3.0 0.00 0.00 0.00 62 1004.7
20260509211202 72 148 2.0 6.0 0.00 0.00 0.00 64 1004.9
20260509210658 72 271 3.0 4.0 0.00 0.00 0.00 64 1004.7
20260509210156 71 269 2.0 3.0 0.00 0.00 0.00 63 1004.9
20260509205651 71 170 0.0 2.0 0.00 0.00 0.00 64 1004.9
20260509205150 71 211 2.0 6.0 0.00 0.00 0.00 64 1004.8